DW6016 Weather Reports


time (UTC)temp
C
wind
direction
speed
KPH
gust
KPH
rain 1hr
cm
rain 24hr
cm
rain mn
cm
humidity
%
barometer
mb
20260904181821 18 303 0.0 0.0 0.00 0.18 0.18 72 1014.1
20260904181320 17 302 0.0 0.0 0.00 0.18 0.18 75 1013.9
20260904180816 17 311 0.0 0.0 0.00 0.18 0.18 74 1013.9
20260904180311 18 319 0.0 0.0 0.00 0.18 0.18 74 1013.9
20260904175810 17 227 1.6 1.6 0.00 0.18 0.18 73 1013.9
20260904175308 17 312 0.0 1.6 0.00 0.18 0.18 75 1013.8
20260904174803 17 316 0.0 1.6 0.00 0.18 0.18 80 1013.9
20260904174259 17 152 1.6 1.6 0.00 0.18 0.18 74 1013.8
20260904173755 17 308 0.0 1.6 0.00 0.18 0.18 75 1013.8
20260904173250 17 336 0.0 1.6 0.00 0.18 0.18 75 1013.8
20260904172746 16 324 1.6 1.6 0.00 0.18 0.18 79 1013.6
20260904172245 16 320 1.6 1.6 0.00 0.18 0.18 83 1013.9
20260904171740 16 349 1.6 1.6 0.00 0.18 0.18 82 1013.8
20260904171235 16 315 0.0 0.0 0.00 0.18 0.18 85 1013.8
20260904170732 15 312 0.0 0.0 0.00 0.18 0.18 88 1013.7
20260904170228 15 351 1.6 1.6 0.00 0.18 0.18 89 1013.7
20260904165727 15 316 0.0 0.0 0.00 0.18 0.18 91 1013.7
20260904165221 15 294 1.6 1.6 0.00 0.18 0.18 92 1013.8
20260904164715 15 317 0.0 0.0 0.00 0.18 0.18 92 1013.6
20260904164210 14 299 1.6 1.6 0.00 0.18 0.18 94 1013.7
20260904163706 14 312 0.0 0.0 0.00 0.18 0.18 97 1013.7
20260904163202 14 307 0.0 0.0 0.00 0.18 0.18 99 1013.6
20260904162700 13 306 0.0 0.0 0.00 0.18 0.18 99 1013.5
20260904162155 13 307 0.0 0.0 0.00 0.18 0.18 99 1013.6
20260904161651 13 308 0.0 0.0 0.00 0.18 0.18 99 1013.4
20260904161146 13 308 0.0 0.0 0.00 0.18 0.18 99 1013.5
20260904160642 13 310 0.0 1.6 0.00 0.18 0.18 99 1013.5
20260904160137 13 308 0.0 0.0 0.18 0.18 0.18 99 1013.4
20260904155632 13 309 0.0 0.0 0.18 0.18 0.18 99 1013.7
20260904155126 12 309 0.0 0.0 0.00 0.15 0.15 99 1013.7
20260904154625 12 312 0.0 0.0 0.00 0.15 0.15 99 1013.7
20260904154125 12 310 1.6 1.6 0.00 0.15 0.15 99 1013.6
20260904153620 12 312 0.0 0.0 0.00 0.15 0.15 99 1013.6
20260904153116 12 312 0.0 0.0 0.00 0.15 0.15 99 1013.6
20260904152612 12 306 0.0 0.0 0.00 0.15 0.15 99 1013.6
20260904152107 12 306 0.0 0.0 0.00 0.15 0.15 99 1013.5
20260904151602 12 306 0.0 0.0 0.00 0.15 0.15 99 1013.4
20260904151101 12 306 0.0 0.0 0.00 0.15 0.15 99 1013.5
20260904150556 12 306 0.0 0.0 0.00 0.15 0.15 99 1013.4
20260904150056 12 306 0.0 0.0 0.00 0.15 0.15 99 1013.2
20260904145555 12 306 0.0 0.0 0.00 0.15 0.15 99 1013.3
20260904145050 12 306 0.0 0.0 0.00 0.15 0.15 99 1013.2
20260904144546 11 306 0.0 0.0 0.00 0.15 0.15 99 1013.0
20260904144042 11 306 0.0 0.0 0.00 0.15 0.15 99 1013.1
20260904143538 11 306 0.0 0.0 0.00 0.15 0.15 99 1013.0
20260904143034 11 306 0.0 0.0 0.00 0.15 0.15 99 1012.9
20260904142531 11 311 0.0 0.0 0.00 0.15 0.15 99 1013.0
20260904142026 11 311 0.0 0.0 0.00 0.15 0.15 99 1013.0
20260904141521 11 311 0.0 0.0 0.00 0.15 0.15 99 1012.7
20260904141017 11 311 0.0 0.0 0.00 0.15 0.15 99 1012.6
20260904140516 11 312 0.0 0.0 0.00 0.15 0.15 99 1012.6
20260904140017 11 313 0.0 0.0 0.00 0.15 0.15 99 1012.5
20260904135515 11 308 0.0 0.0 0.00 0.15 0.15 99 1012.7
20260904135012 11 307 0.0 0.0 0.00 0.15 0.15 99 1012.6
20260904134507 11 314 0.0 0.0 0.13 0.15 0.15 99 1012.5
20260904134001 11 313 0.0 0.0 0.13 0.15 0.15 99 1012.5
20260904133455 11 305 0.0 0.0 0.00 0.13 0.13 99 1012.6
20260904132951 11 305 0.0 0.0 0.00 0.13 0.13 99 1012.5
20260904132452 11 305 0.0 0.0 0.00 0.13 0.13 99 1012.6
20260904131946 11 305 0.0 0.0 0.00 0.13 0.13 99 1012.4
20260904131441 11 305 0.0 0.0 0.00 0.13 0.13 99 1012.3
20260904130937 11 305 0.0 0.0 0.00 0.13 0.13 99 1012.4
20260904130436 11 305 0.0 0.0 0.00 0.13 0.13 99 1012.3
20260904125930 11 305 0.0 0.0 0.00 0.13 0.13 99 1012.4
20260904125427 11 305 0.0 0.0 0.00 0.13 0.13 99 1012.3
20260904124926 11 305 0.0 0.0 0.00 0.13 0.13 99 1012.2
20260904124423 11 305 0.0 0.0 0.00 0.13 0.13 99 1012.1
20260904123919 11 305 0.0 0.0 0.00 0.13 0.13 99 1012.3
20260904123418 11 305 0.0 0.0 0.00 0.13 0.13 99 1012.1
20260904122914 11 305 0.0 0.0 0.00 0.13 0.13 99 1012.1
20260904122413 11 305 0.0 0.0 0.00 0.13 0.13 99 1012.1
20260904121908 11 305 0.0 0.0 0.00 0.13 0.13 99 1011.8
20260904121405 11 305 0.0 0.0 0.00 0.13 0.13 99 1011.9
20260904120901 11 305 0.0 0.0 0.00 0.13 0.13 99 1011.8
20260904120356 11 305 0.0 0.0 0.00 0.13 0.13 99 1011.7
20260904115852 11 305 0.0 0.0 0.00 0.13 0.13 99 1011.8
20260904115346 11 305 0.0 0.0 0.18 0.13 0.13 99 1011.7
20260904114841 11 305 0.0 0.0 0.18 0.13 0.13 99 1011.9
20260904114336 11 305 0.0 0.0 0.13 0.10 0.10 99 1011.9
20260904113831 11 305 0.0 0.0 0.13 0.10 0.10 99 1011.9
20260904113330 11 305 0.0 0.0 0.00 0.08 0.08 99 1011.7
20260904112825 11 305 0.0 0.0 0.00 0.08 0.08 99 1011.8
20260904112321 11 305 0.0 0.0 0.18 0.08 0.08 99 1011.6
20260904111816 11 305 0.0 0.0 0.18 0.08 0.08 99 1011.8
20260904111312 12 305 0.0 0.0 0.13 0.05 0.05 99 1011.5
20260904110808 11 305 0.0 0.0 0.13 0.05 0.05 99 1011.4
20260904110306 11 305 0.0 0.0 0.13 0.05 0.05 99 1011.5
20260904105801 11 305 0.0 0.0 0.18 0.03 0.03 99 1011.8
20260904105256 11 305 0.0 0.0 0.18 0.03 0.03 99 1011.5
20260904104751 11 305 0.0 0.0 0.00 0.00 0.00 99 1011.7
20260904104247 11 305 0.0 0.0 0.00 0.00 0.00 99 1011.5
20260904103744 11 305 0.0 0.0 0.00 0.00 0.00 99 1011.6
20260904103238 11 305 0.0 0.0 0.00 0.00 0.00 99 1011.4
20260904102733 11 305 0.0 0.0 0.00 0.00 0.00 99 1011.5
20260904102229 11 305 0.0 0.0 0.00 0.00 0.00 99 1011.3
20260904101725 11 305 0.0 0.0 0.00 0.00 0.00 99 1011.5
20260904101221 11 305 0.0 0.0 0.00 0.00 0.00 99 1011.4
20260904100717 11 305 0.0 0.0 0.00 0.00 0.00 99 1011.4
20260904100213 11 305 0.0 0.0 0.00 0.00 0.00 99 1011.4
20260904095712 11 305 0.0 0.0 0.00 0.00 0.00 99 1011.4
20260904095206 11 305 0.0 0.0 0.00 0.00 0.00 99 1011.4
20260904094702 11 305 0.0 0.0 0.00 0.00 0.00 99 1011.0
20260904094156 11 305 0.0 0.0 0.00 0.00 0.00 99 1011.1
20260904093654 11 305 0.0 0.0 0.00 0.00 0.00 99 1011.1
20260904093153 11 305 0.0 0.0 0.00 0.00 0.00 99 1011.2
20260904092649 11 305 0.0 0.0 0.00 0.00 0.00 99 1011.2
20260904092145 11 305 0.0 0.0 0.00 0.00 0.00 99 1011.3
20260904091641 11 305 0.0 0.0 0.00 0.00 0.00 99 1011.1
20260904091140 11 305 0.0 0.0 0.00 0.00 0.00 99 1011.1
20260904090636 12 305 0.0 0.0 0.00 0.00 0.00 99 1011.4
20260904090132 12 305 0.0 0.0 0.00 0.00 0.00 99 1011.2
20260904085631 12 305 0.0 0.0 0.00 0.00 0.00 99 1010.9
20260904085126 12 305 0.0 0.0 0.00 0.00 0.00 99 1011.0
20260904084621 12 305 0.0 0.0 0.00 0.00 0.00 99 1011.1
20260904084118 12 305 0.0 0.0 0.00 0.00 0.00 99 1011.0
20260904083614 12 305 0.0 0.0 0.00 0.00 0.00 99 1011.1
20260904083109 12 305 0.0 0.0 0.00 0.00 0.00 99 1011.0
20260904082604 12 305 0.0 0.0 0.00 0.00 0.00 99 1011.0
20260904082100 12 305 0.0 0.0 0.00 0.00 0.00 99 1011.2
20260904081555 12 305 0.0 0.0 0.00 0.00 0.00 99 1011.3
20260904081050 12 305 0.0 0.0 0.00 0.00 0.00 99 1011.1
20260904080546 12 305 0.0 0.0 0.00 0.00 0.00 99 1011.1
20260904080042 12 305 0.0 0.0 0.00 0.00 0.00 99 1011.3
20260904075537 12 305 0.0 0.0 0.00 0.00 0.00 99 1011.1
20260904075032 12 305 0.0 0.0 0.00 0.00 0.00 99 1011.3
20260904074531 12 305 0.0 0.0 0.00 0.00 0.00 99 1011.3
20260904074026 12 305 0.0 0.0 0.00 0.00 0.00 99 1011.2
20260904073521 12 305 0.0 0.0 0.00 0.00 0.00 99 1011.2
20260904073018 12 305 0.0 0.0 0.00 0.00 0.00 99 1011.1
20260904072513 12 305 0.0 0.0 0.00 0.00 0.00 99 1010.9
20260904072008 12 305 0.0 0.0 0.00 0.00 0.00 99 1011.1
20260904071503 12 305 0.0 0.0 0.00 0.00 0.00 99 1011.0
20260904070958 12 305 0.0 1.6 0.00 0.00 0.00 99 1011.1
20260904070456 12 305 0.0 0.0 0.00 0.00 0.00 99 1011.2
20260904065951 12 305 0.0 0.0 0.00 0.58 0.58 99 1011.1
20260904065447 12 305 0.0 0.0 0.00 0.58 0.58 99 1011.0
20260904064942 12 305 0.0 0.0 0.00 0.58 0.58 99 1011.3
20260904064439 12 305 0.0 0.0 0.00 0.58 0.58 99 1011.0
20260904063933 12 305 0.0 0.0 0.00 0.58 0.58 99 1011.0
20260904063430 12 305 0.0 0.0 0.00 0.58 0.58 99 1011.0
20260904062925 12 305 0.0 0.0 0.00 0.58 0.58 99 1010.9
20260904062421 12 305 0.0 0.0 0.00 0.58 0.58 99 1011.0
20260904061916 12 305 0.0 0.0 0.00 0.58 0.58 99 1011.0
20260904061413 12 305 0.0 0.0 0.00 0.58 0.58 99 1010.9
20260904060909 12 305 0.0 0.0 0.00 0.58 0.58 99 1010.9
20260904060404 12 305 0.0 0.0 0.00 0.58 0.58 99 1011.1
20260904055900 12 305 0.0 0.0 0.00 0.58 0.58 99 1011.1
20260904055355 12 305 0.0 0.0 0.00 0.58 0.58 99 1011.0
20260904054850 12 305 0.0 0.0 0.00 0.58 0.58 99 1010.9
20260904054346 12 305 0.0 0.0 0.00 0.58 0.58 99 1011.1
20260904053842 12 305 0.0 0.0 0.00 0.58 0.58 99 1011.4
20260904053341 12 305 0.0 0.0 0.00 0.58 0.58 99 1011.0
20260904052837 12 305 0.0 0.0 0.00 0.58 0.58 99 1011.1
20260904052333 12 305 0.0 0.0 0.00 0.58 0.58 99 1011.2
20260904051829 12 305 0.0 0.0 0.00 0.58 0.58 99 1011.2
20260904051325 12 305 0.0 0.0 0.00 0.58 0.58 99 1011.2
20260904050819 12 305 0.0 0.0 0.00 0.58 0.58 99 1011.0
20260904050317 12 305 0.0 0.0 0.00 0.58 0.58 99 1011.3
20260904045816 12 305 0.0 0.0 0.00 0.58 0.58 99 1011.3
20260904045311 12 305 0.0 0.0 0.00 0.58 0.58 98 1011.2
20260904044806 12 305 0.0 0.0 0.00 0.58 0.58 98 1011.3
20260904044303 12 305 0.0 0.0 0.00 0.58 0.58 98 1011.4
20260904043758 12 305 0.0 0.0 0.00 0.58 0.58 98 1011.4
20260904043254 12 305 0.0 0.0 0.00 0.58 0.58 98 1011.3
20260904042749 12 304 0.0 0.0 0.00 0.58 0.58 98 1011.4
20260904042246 12 304 0.0 0.0 0.00 0.58 0.58 98 1011.3
20260904041745 12 304 0.0 0.0 0.00 0.58 0.58 97 1011.2
20260904041242 12 304 0.0 0.0 0.00 0.58 0.58 97 1011.5
20260904040737 12 304 0.0 0.0 0.00 0.58 0.58 97 1011.2
20260904040232 12 304 0.0 0.0 0.00 0.58 0.58 97 1011.2
20260904035729 12 304 0.0 0.0 0.00 0.58 0.58 97 1011.3
20260904035224 12 321 0.0 0.0 0.00 0.58 0.58 97 1011.4
20260904034722 12 321 0.0 0.0 0.00 0.58 0.58 96 1011.3
20260904034218 12 321 0.0 0.0 0.00 0.58 0.58 96 1011.1
20260904033714 12 321 0.0 0.0 0.00 0.58 0.58 96 1011.1
20260904033211 12 321 0.0 0.0 0.00 0.58 0.58 95 1011.0
20260904032707 12 321 0.0 0.0 0.00 0.58 0.58 95 1011.0
20260904032206 12 321 0.0 0.0 0.00 0.58 0.58 95 1011.0
20260904031706 12 321 0.0 0.0 0.00 0.58 0.58 94 1010.8
20260904031201 13 321 0.0 0.0 0.00 0.58 0.58 94 1010.7
20260904030657 13 321 0.0 0.0 0.00 0.58 0.58 93 1010.8
20260904030152 13 321 0.0 0.0 0.00 0.58 0.58 92 1010.7
20260904025648 13 321 0.0 0.0 0.00 0.58 0.58 92 1010.7
20260904025143 13 321 0.0 0.0 0.00 0.58 0.58 91 1010.6
20260904024638 13 321 0.0 0.0 0.00 0.58 0.58 90 1010.5
20260904024134 13 321 0.0 0.0 0.00 0.58 0.58 89 1010.6
20260904023630 14 321 0.0 0.0 0.00 0.58 0.58 89 1010.5
20260904023126 14 321 0.0 0.0 0.00 0.58 0.58 89 1010.7
20260904022625 14 321 0.0 0.0 0.00 0.58 0.58 89 1010.6
20260904022122 15 321 0.0 0.0 0.00 0.58 0.58 88 1010.5
20260904021618 15 321 0.0 0.0 0.00 0.58 0.58 87 1010.5
20260904021113 15 321 0.0 0.0 0.00 0.58 0.58 87 1010.6
20260904020609 15 330 0.0 0.0 0.00 0.58 0.58 86 1010.6
20260904015557 15 322 0.0 1.6 0.00 0.58 0.58 86 1010.6
20260904015056 15 326 0.0 0.0 0.00 0.58 0.58 86 1010.6
20260904014550 15 312 0.0 0.0 0.00 0.58 0.58 86 1010.5
20260904014046 15 338 0.0 0.0 0.00 0.58 0.58 85 1010.5
20260904013542 15 303 0.0 0.0 0.00 0.58 0.58 86 1010.6
20260904013039 15 318 0.0 1.6 0.00 0.58 0.58 87 1010.8
20260904012538 15 132 4.8 8.0 0.00 0.58 0.58 84 1010.5
20260904012032 15 306 0.0 1.6 0.00 0.58 0.58 84 1010.7
20260904011532 15 274 1.6 1.6 0.00 0.58 0.58 84 1011.0
20260904011027 15 308 0.0 0.0 0.00 0.58 0.58 84 1010.7
20260904010524 15 50 1.6 1.6 0.00 0.58 0.58 85 1010.7
20260904010020 15 306 0.0 0.0 0.00 0.58 0.58 86 1010.7
20260904005519 15 328 0.0 1.6 0.00 0.58 0.58 86 1010.7
20260904005015 15 294 1.6 1.6 0.00 0.58 0.58 84 1010.7
20260904004510 15 317 0.0 1.6 0.00 0.58 0.58 83 1010.6
20260904004005 15 307 0.0 0.0 0.00 0.58 0.58 81 1010.8
20260904003501 15 295 1.6 1.6 0.00 0.58 0.58 80 1010.7
20260904002956 15 303 0.0 0.0 0.00 0.58 0.58 81 1010.6
20260904002452 15 307 0.0 0.0 0.00 0.58 0.58 80 1010.4
20260904001950 15 288 1.6 1.6 0.00 0.58 0.58 76 1010.7
20260904001447 16 312 0.0 0.0 0.00 0.58 0.58 83 1010.8
20260904000941 16 314 0.0 0.0 0.00 0.58 0.58 85 1010.9
20260904000441 15 318 0.0 0.0 0.00 0.58 0.58 86 1011.0
20260903235936 15 312 0.0 0.0 0.00 0.58 0.58 86 1010.9
20260903235432 15 255 1.6 1.6 0.00 0.58 0.58 86 1011.1
20260903234932 15 310 0.0 0.0 0.00 0.58 0.58 89 1010.9
20260903234428 15 327 0.0 0.0 0.00 0.58 0.58 88 1010.7
20260903233924 14 307 0.0 0.0 0.00 0.58 0.58 88 1011.1
20260903233420 14 299 1.6 1.6 0.00 0.58 0.58 89 1010.9
20260903232920 14 306 0.0 0.0 0.00 0.58 0.58 89 1010.8
20260903232415 14 359 0.0 0.0 0.00 0.58 0.58 88 1010.9
20260903231915 14 358 1.6 1.6 0.00 0.58 0.58 88 1011.1
20260903231409 14 307 0.0 0.0 0.00 0.58 0.58 89 1011.1
20260903230904 14 307 0.0 1.6 0.00 0.58 0.58 88 1011.1
20260903230400 14 285 1.6 1.6 0.00 0.58 0.58 86 1011.4
20260903225856 14 308 1.6 1.6 0.00 0.58 0.58 85 1011.3
20260903225352 15 309 3.2 4.8 0.00 0.58 0.58 85 1011.2
20260903224848 15 322 4.8 4.8 0.00 0.58 0.58 84 1011.2
20260903224344 15 147 1.6 3.2 0.00 0.58 0.58 82 1011.3
20260903223839 15 297 4.8 4.8 0.00 0.58 0.58 80 1011.4
20260903223338 15 344 1.6 1.6 0.00 0.58 0.58 82 1011.2
20260903222833 16 278 6.4 11.3 0.00 0.58 0.58 79 1011.0
20260903222332 16 305 1.6 3.2 0.00 0.58 0.58 77 1010.9
20260903221827 16 299 4.8 8.0 0.00 0.58 0.58 77 1010.9
20260903221326 17 319 0.0 0.0 0.00 0.58 0.58 78 1011.1
20260903220824 16 297 0.0 0.0 0.00 0.58 0.58 80 1010.9
20260903220319 16 251 1.6 1.6 0.00 0.58 0.58 78 1010.9
20260903215817 16 303 0.0 0.0 0.00 0.58 0.58 79 1011.0
20260903215314 16 314 0.0 1.6 0.00 0.58 0.58 78 1010.7
20260903214811 16 312 0.0 0.0 0.00 0.58 0.58 78 1011.1
20260903214308 16 308 0.0 0.0 0.00 0.58 0.58 79 1011.0
20260903213802 16 344 0.0 1.6 0.00 0.58 0.58 79 1011.0
20260903213258 16 302 1.6 1.6 0.00 0.58 0.58 79 1011.1
20260903212753 16 291 1.6 1.6 0.00 0.58 0.58 78 1011.1
20260903212250 16 311 0.0 0.0 0.00 0.58 0.58 81 1011.3
20260903211743 16 316 0.0 1.6 0.00 0.58 0.58 81 1011.1
20260903211240 16 316 0.0 0.0 0.00 0.58 0.58 79 1011.4
20260903210736 16 316 0.0 0.0 0.00 0.58 0.58 80 1011.1
20260903210231 16 212 3.2 3.2 0.00 0.58 0.58 81 1011.2
20260903205730 16 296 1.6 1.6 0.00 0.58 0.58 83 1011.1
20260903205230 16 307 0.0 0.0 0.00 0.58 0.58 84 1011.0
20260903204725 16 299 1.6 3.2 0.00 0.58 0.58 82 1010.8
20260903204221 16 308 0.0 0.0 0.00 0.58 0.58 84 1011.0
20260903203717 16 290 3.2 4.8 0.00 0.58 0.58 84 1011.1
20260903203212 16 305 1.6 1.6 0.13 0.58 0.58 85 1011.0
20260903202706 16 298 1.6 1.6 0.13 0.58 0.58 85 1011.0
20260903202202 16 277 1.6 1.6 0.13 0.58 0.58 85 1010.8
20260903201701 16 318 0.0 0.0 0.00 0.56 0.56 87 1011.0
20260903201156 16 318 0.0 0.0 0.00 0.56 0.56 87 1011.0
20260903200650 15 311 0.0 0.0 0.00 0.56 0.56 87 1011.2
20260903200146 16 314 0.0 1.6 0.00 0.56 0.56 86 1011.1
20260903195642 16 307 1.6 1.6 0.00 0.56 0.56 85 1011.1
20260903195138 16 290 3.2 3.2 0.00 0.56 0.56 83 1011.1
20260903194637 16 172 1.6 3.2 0.00 0.56 0.56 83 1011.2
20260903194137 16 342 3.2 3.2 0.00 0.56 0.56 84 1010.9
20260903193633 16 286 0.0 1.6 0.00 0.56 0.56 84 1010.9
20260903193129 16 186 3.2 3.2 0.00 0.56 0.56 84 1011.0
20260903192626 16 322 0.0 0.0 0.00 0.56 0.56 88 1011.2
20260903192120 16 325 0.0 0.0 0.00 0.56 0.56 89 1011.2
20260903191616 16 313 0.0 0.0 0.00 0.56 0.56 89 1011.3
20260903191111 15 286 1.6 1.6 0.00 0.56 0.56 91 1011.3
20260903190610 15 305 0.0 1.6 0.00 0.56 0.56 92 1011.4
20260903190105 15 298 0.0 1.6 0.00 0.56 0.56 93 1011.2
20260903185600 15 310 0.0 0.0 0.00 0.56 0.56 93 1011.5
20260903185056 14 269 1.6 3.2 0.00 0.56 0.56 93 1011.3
20260903184552 15 183 3.2 3.2 0.00 0.56 0.56 92 1011.3
20260903184047 15 312 0.0 0.0 0.00 0.56 0.56 93 1011.5
20260903183546 15 204 3.2 3.2 0.18 0.56 0.56 92 1011.3
20260903183041 15 314 0.0 1.6 0.18 0.56 0.56 92 1011.3
20260903182539 15 168 3.2 4.8 0.00 0.53 0.53 89 1011.3